Temp
2 3 3 3 4 4 4 5 5 5 5 5 5 6 6 6 6 6 6 6 7 7 7 7 7 7 7 7 7 7 6 6 6 6 6 5 5 5 5 5 6 6 7 7 7 7 6
2 2 2 2 3 3 4 4 4 5 5 5 5 5 5 6 6 6 6 6 6 6 6 7 7 7 7 7 7 7 6 5 6 6 5 4 5 5 5 5 6 6 7 7 7 6 6
2 2 2 2 2 2 3 3 3 4 4 5 5 5 5 5 6 5 6 6 6 6 6 6 7 7 7 7 7 6 6 5 5 5 5 5 5 5 5 5 5 6 6 6 6 6 5
1 2 2 2 2 2 2 2 3 3 4 4 4 4 4 5 5 5 5 5 5 5 6 6 7 6 7 7 7 6 5 5 5 5 5 5 5 5 5 5 5 5 6 6 6 5 5
1 1 1 1 2 2 2 2 2 2 3 3 3 4 4 4 5 5 5 5 5 5 5 6 6 6 7 7 6 6 5 5 5 5 5 5 5 5 5 5 5 5 6 6 6 5 6
1 1 1 1 1 1 1 2 2 2 2 2 3 3 3 4 4 5 4 5 4 5 5 6 6 6 6 7 6 6 5 5 5 5 5 5 5 5 5 5 6 6 6 6 6 6 6
0 0 1 1 1 1 1 1 1 1 2 2 2 3 3 3 4 4 4 4 3 4 5 6 6 6 6 6 6 5 5 5 5 5 5 5 5 5 5 6 6 6 6 6 6 6 6
-0 0 0 0 0 1 1 1 1 1 1 1 2 2 3 3 3 4 3 3 3 4 5 6 6 7 5 5 6 5 5 5 5 5 5 6 6 6 6 6 6 6 6 6 6 6 6
-4 -2 -0 0 -0 0 0 0 1 1 1 1 1 1 2 2 3 3 2 1 2 2 3 7 6 7 6 5 6 5 5 5 5 5 5 6 6 6 5 6 5 5 6 6 5 6 6
-4 -4 -4 -1 -0 -0 -0 0 0 1 1 1 1 1 1 2 2 2 2 1 1 1 2 6 7 7 7 6 6 5 5 5 5 5 5 6 6 6 5 5 5 6 6 6 6 6 6
-4 -4 -4 -4 -2 -0 -1 -0 -0 -0 0 0 0 0 1 1 2 1 0 0 0 1 -1 6 6 6 7 6 6 5 5 5 5 5 5 6 6 6 5 5 5 6 6 6 6 6 6
-5 -5 -5 -5 -5 -3 -1 -1 -0 -0 -0 0 0 -0 0 1 2 -0 -1 -1 0 1 -1 5 5 6 6 5 6 6 5 5 5 5 5 6 6 6 6 6 5 5 6 6 6 6 4
-5 -5 -5 -5 -5 -5 -3 -1 -1 -0 -0 -0 -0 -0 0 1 2 -1 -2 -1 -1 -1 4 5 5 5 6 6 5 6 6 5 5 5 5 6 6 6 6 6 6 6 6 5 4 2 3
-5 -5 -5 -5 -5 -6 -5 -3 -2 -1 -1 -1 -1 -1 -0 0 1 -2 -2 -2 -2 1 5 5 4 5 5 6 5 5 5 5 5 5 6 5 6 6 6 6 6 6 6 6 5 1 2
-6 -6 -5 -5 -5 -6 -6 -6 -5 -2 -1 -1 -1 -1 -0 0 -0 -2 -2 -2 -1 1 4 4 4 4 4 5 5 5 5 5 5 5 5 6 6 6 6 6 6 6 6 6 6 3 2
-7 -6 -6 -5 -5 -6 -6 -6 -8 -7 -2 -2 -2 -2 -0 -0 -1 -3 -3 -2 -2 1 3 4 4 5 5 5 5 5 5 5 5 6 6 6 6 6 6 6 6 6 6 6 5 4 3
-7 -8 -8 -6 -5 -6 -6 -7 -8 -9 -8 -5 -5 -2 -1 -1 -2 -3 -2 -3 -2 1 1 2 3 4 5 5 5 5 5 6 6 6 6 6 6 6 6 6 6 6 6 5 5 5 1
-6 -7 -8 -7 -6 -6 -7 -7 -8 -9 -10 -9 -8 -5 -2 -2 -4 -4 -3 -3 -2 0 1 1 3 4 5 5 5 5 5 6 6 6 6 6 6 6 6 6 6 6 6 6 5 4 4
-7 -6 -7 -8 -7 -7 -7 -8 -8 -9 -9 -9 -7 -7 -5 -3 -4 -1 -4 -3 -2 0 1 1 2 3 4 5 5 6 6 6 6 6 6 6 6 6 6 6 6 6 6 6 5 6 5
-7 -7 -7 -8 -8 -7 -7 -8 -8 -9 -9 -9 -8 -8 -6 -5 -1 -2 -4 -3 -2 0 1 -0 2 2 3 4 5 5 6 6 6 6 6 6 6 6 5 6 6 6 6 6 5 5 6
-7 -7 -7 -8 -8 -8 -8 -8 -8 -9 -9 -9 -8 -8 -6 -5 -2 -2 -4 -3 -3 -1 -0 0 1 2 2 3 5 5 6 6 6 6 6 6 6 6 6 6 6 6 6 6 6 6 6
-8 -8 -7 -7 -7 -8 -7 -8 -9 -9 -9 -8 -8 -8 -6 -4 -1 -4 -5 -5 -4 1 -1 0 -0 2 3 3 4 4 5 5 6 6 6 6 6 6 6 6 6 6 6 6 6 6 6
-9 -8 -7 -7 -7 -8 -8 -8 -9 -10 -9 -8 -8 -8 -6 -6 -4 -4 -3 -4 -3 1 -1 -0 1 2 3 3 4 3 3 4 5 4 6 6 6 6 5 5 5 5 6 6 6 6 6
-9 -8 -7 -7 -7 -8 -8 -8 -8 -9 -8 -8 -8 -8 -7 -6 -5 -2 -3 -5 -3 1 -1 0 0 2 2 3 3 3 3 4 4 4 4 5 6 5 6 4 -1 6 5 5 5 5 5
-9 -8 -8 -7 -7 -8 -8 -8 -8 -9 -10 -8 -8 -8 -7 -6 -5 -5 -4 -5 -5 -0 -2 -1 0 1 1 1 2 2 3 3 4 4 4 5 5 5 5 4 5 5 5 5 5 5 5
-9 -8 -8 -7 -7 -8 -8 -8 -9 -10 -10 -8 -9 -8 -7 -6 -5 -5 -5 -5 -4 -0 -2 0 -2 0 0 -0 -1 0 2 3 4 4 4 4 5 5 4 4 -1 5 5 5 4 4 5
-8 -8 -8 -7 -8 -8 -8 -8 -10 -10 -9 -9 -8 -7 -7 -6 -5 -5 -5 -4 -4 -2 -0 -0 0 -0 -0 -1 -1 0 1 2 3 4 5 4 4 4 5 4 4 5 4 4 3 5 5
-8 -7 -7 -8 -8 -8 -9 -9 -10 -10 -10 -9 -9 -8 -7 -6 -5 -5 -5 -4 -3 -1 -0 -0 -1 -1 -1 -1 -1 -0 2 2 3 4 5 5 4 4 3 3 2 4 4 4 5 4 4
-7 -8 -8 -8 -8 -9 -9 -9 -10 -10 -10 -9 -9 -8 -8 -7 -5 -4 -4 -4 -2 -1 0 -1 -0 0 1 -1 -1 0 2 3 3 3 4 4 4 4 4 4 4 5 5 4 4 3 3
Height
3109 3110 3111 3111 3112 3114 3115 3116 3117 3118 3119 3121 3123 3125 3126 3128 3128 3128 3129 3129 3128 3128 3127 3126 3125 3123 3122 3121 3120 3119 3119 3118 3118 3117 3118 3119 3120 3121 3121 3121 3120 3118 3117 3116 3117 3119 3118
3101 3103 3103 3104 3106 3107 3108 3110 3110 3111 3113 3114 3116 3118 3120 3122 3122 3122 3123 3124 3124 3123 3123 3123 3121 3120 3118 3118 3117 3117 3117 3117 3117 3117 3118 3119 3119 3120 3121 3120 3120 3118 3117 3117 3117 3118 3118
3092 3093 3095 3097 3098 3099 3101 3103 3105 3105 3106 3108 3109 3112 3114 3115 3116 3116 3117 3118 3118 3118 3119 3119 3118 3116 3115 3115 3115 3115 3115 3117 3117 3117 3117 3118 3118 3119 3120 3120 3119 3119 3119 3118 3117 3117 3117
3082 3084 3086 3088 3090 3093 3093 3096 3098 3099 3101 3102 3103 3105 3107 3108 3109 3110 3111 3112 3112 3114 3114 3114 3114 3113 3112 3112 3112 3113 3114 3116 3117 3117 3117 3117 3118 3118 3119 3120 3120 3120 3120 3118 3118 3118 3117
3071 3074 3076 3078 3081 3084 3086 3087 3090 3093 3094 3096 3099 3099 3100 3101 3103 3105 3105 3106 3106 3108 3109 3110 3111 3109 3109 3109 3110 3110 3112 3115 3116 3116 3117 3117 3117 3117 3118 3118 3120 3119 3119 3118 3118 3117 3117
3057 3060 3064 3068 3071 3074 3077 3080 3082 3085 3088 3090 3092 3095 3094 3095 3096 3098 3100 3100 3100 3102 3103 3105 3105 3108 3107 3107 3107 3108 3110 3112 3114 3115 3116 3116 3115 3115 3117 3118 3119 3118 3118 3118 3118 3117 3115
3040 3044 3049 3055 3060 3064 3068 3072 3074 3078 3081 3084 3087 3088 3088 3089 3090 3092 3094 3095 3098 3098 3097 3101 3101 3101 3102 3104 3105 3107 3109 3111 3112 3114 3114 3114 3115 3115 3116 3117 3118 3117 3117 3117 3117 3118 3116
3022 3028 3034 3039 3044 3051 3056 3062 3065 3070 3074 3077 3080 3083 3083 3084 3085 3087 3089 3088 3091 3094 3091 3094 3094 3095 3099 3100 3102 3104 3107 3109 3110 3112 3113 3114 3114 3114 3115 3116 3116 3116 3116 3116 3116 3115 3115
3009 3011 3016 3023 3030 3036 3042 3049 3055 3061 3066 3070 3074 3076 3078 3079 3081 3083 3084 3084 3086 3088 3086 3087 3088 3088 3093 3096 3097 3100 3104 3106 3107 3110 3111 3111 3114 3113 3113 3113 3114 3114 3114 3114 3114 3111 3111
2998 2999 3000 3004 3013 3021 3029 3036 3044 3050 3056 3062 3067 3071 3073 3073 3077 3078 3079 3081 3085 3086 3085 3079 3080 3081 3086 3090 3093 3097 3100 3104 3105 3108 3109 3110 3110 3110 3109 3110 3112 3111 3113 3112 3111 3110 3110
2984 2985 2988 2990 2993 3003 3012 3022 3030 3038 3046 3052 3059 3063 3067 3068 3071 3074 3077 3080 3083 3085 3085 3074 3072 3074 3077 3084 3088 3091 3096 3100 3102 3105 3108 3108 3107 3106 3106 3108 3110 3110 3110 3109 3109 3110 3109
2968 2971 2974 2977 2981 2984 2995 3006 3017 3025 3034 3042 3049 3055 3059 3062 3067 3068 3072 3076 3081 3085 3074 3067 3067 3069 3073 3078 3084 3087 3092 3096 3100 3103 3104 3105 3105 3106 3106 3107 3108 3108 3108 3107 3108 3108 3110
2951 2955 2959 2963 2968 2972 2977 2988 3001 3011 3022 3031 3039 3045 3050 3056 3064 3062 3069 3073 3079 3072 3064 3064 3063 3066 3070 3074 3080 3082 3085 3089 3093 3098 3100 3102 3103 3104 3105 3105 3105 3106 3107 3106 3109 3109 3108
2934 2938 2943 2949 2954 2960 2965 2971 2983 2996 3008 3020 3028 3034 3040 3048 3057 3059 3064 3068 3065 3056 3058 3059 3061 3065 3067 3071 3076 3079 3083 3085 3091 3094 3097 3099 3100 3102 3102 3104 3105 3105 3106 3107 3109 3111 3106
2916 2921 2926 2934 2939 2946 2953 2958 2967 2980 2995 3006 3017 3021 3029 3040 3049 3053 3058 3055 3047 3051 3054 3057 3059 3062 3064 3068 3072 3075 3078 3081 3085 3089 3095 3095 3097 3099 3100 3101 3104 3103 3103 3105 3105 3106 3106
2896 2903 2909 2916 2924 2933 2940 2948 2955 2966 2979 2993 3001 3010 3020 3033 3040 3046 3048 3039 3042 3047 3050 3054 3055 3057 3058 3062 3066 3070 3075 3078 3082 3087 3091 3093 3096 3095 3098 3099 3100 3101 3102 3103 3104 3105 3106
2876 2884 2891 2899 2908 2917 2928 2936 2944 2956 2966 2980 2988 2996 3009 3022 3030 3034 3027 3027 3037 3045 3048 3050 3051 3052 3054 3057 3062 3064 3069 3074 3079 3084 3087 3089 3092 3094 3094 3094 3096 3099 3099 3100 3101 3102 3102
2857 2865 2874 2882 2891 2902 2914 2924 2933 2946 2957 2968 2977 2982 2998 3010 3016 3016 3014 3021 3031 3038 3043 3045 3047 3050 3050 3053 3057 3062 3065 3071 3074 3079 3082 3085 3087 3087 3090 3091 3092 3092 3093 3096 3096 3097 3097
2839 2847 2856 2866 2876 2887 2899 2912 2923 2935 2946 2956 2964 2971 2986 2997 2999 2999 3008 3014 3023 3032 3038 3040 3043 3046 3047 3050 3055 3058 3062 3068 3071 3074 3077 3080 3081 3084 3085 3087 3086 3087 3089 3090 3090 3091 3091
2819 2828 2838 2849 2860 2872 2884 2898 2911 2923 2936 2947 2954 2960 2976 2980 2991 2995 3000 3006 3012 3023 3031 3035 3038 3042 3045 3046 3049 3054 3058 3063 3067 3071 3073 3075 3076 3076 3078 3079 3083 3084 3084 3084 3086 3086 3085
2802 2811 2821 2831 2843 2857 2870 2885 2898 2911 2926 2936 2940 2943 2955 2959 2971 2980 2991 2997 3003 3013 3022 3029 3032 3037 3042 3044 3046 3050 3054 3058 3062 3066 3068 3071 3071 3072 3074 3076 3078 3079 3080 3080 3079 3079 3079
2784 2793 2804 2817 2829 2843 2858 2871 2885 2899 2916 2926 2928 2936 2950 2957 2969 2975 2982 2985 2994 3007 3014 3018 3024 3034 3038 3041 3045 3049 3051 3054 3057 3061 3063 3065 3066 3068 3070 3071 3072 3073 3075 3074 3074 3074 3074
2767 2778 2788 2802 2816 2831 2845 2860 2874 2887 2901 2908 2918 2933 2945 2949 2956 2965 2962 2977 2986 3004 3008 3015 3024 3031 3033 3039 3044 3046 3047 3049 3051 3053 3056 3060 3062 3064 3065 3067 3067 3069 3069 3069 3068 3068 3068
2752 2764 2775 2789 2804 2820 2835 2850 2864 2876 2886 2897 2911 2929 2939 2944 2948 2948 2966 2975 2982 2994 3003 3011 3022 3023 3029 3037 3039 3041 3043 3044 3045 3048 3051 3054 3057 3059 3061 3062 3065 3060 3063 3064 3061 3060 3060
2738 2753 2763 2778 2793 2811 2827 2842 2855 2869 2882 2895 2910 2920 2931 2938 2946 2952 2959 2970 2983 2993 2997 3005 3015 3023 3027 3030 3034 3036 3037 3039 3039 3043 3046 3049 3052 3055 3055 3056 3055 3055 3057 3058 3057 3054 3054
2728 2742 2754 2770 2788 2806 2821 2837 2851 2865 2880 2895 2905 2913 2925 2934 2938 2950 2957 2965 2973 2983 2993 2997 3011 3016 3021 3027 3030 3030 3030 3033 3035 3038 3041 3044 3047 3051 3050 3051 3051 3050 3052 3051 3052 3047 3050
2723 2735 2751 2768 2787 2803 2818 2832 2848 2862 2875 2888 2897 2908 2923 2931 2939 2945 2949 2957 2971 2979 2985 2994 3002 3012 3018 3019 3022 3025 3026 3029 3029 3031 3036 3039 3041 3042 3043 3044 3043 3045 3047 3048 3049 3044 3043
2721 2737 2754 2770 2788 2802 2817 2831 2844 2858 2870 2877 2893 2906 2916 2925 2934 2941 2948 2954 2967 2974 2980 2988 2999 3001 3007 3012 3014 3017 3018 3022 3025 3026 3028 3032 3036 3036 3039 3039 3038 3040 3041 3042 3041 3038 3040
2729 2746 2760 2776 2790 2804 2817 2829 2841 2855 2866 2875 2890 2905 2913 2923 2931 2938 2944 2952 2965 2974 2981 2985 2990 2993 2998 3004 3007 3011 3014 3016 3018 3021 3024 3026 3028 3031 3033 3031 3032 3033 3034 3035 3035 3034 3035
Wind_Speed
36 35 36 36 36 37 39 38 38 38 37 35 34 31 30 29 28 28 27 26 26 25 22 19 19 16 14 11 11 7 4 4 3 1 3 7 6 3 3 4 4 3 7 2 2 2 4
40 38 36 35 35 35 36 38 37 38 38 37 35 33 32 31 30 29 28 27 27 25 23 19 19 15 14 11 6 3 2 2 2 3 10 8 3 2 1 6 7 4 4 2 1 3 4
44 42 40 39 36 34 34 35 35 35 36 36 35 34 33 32 31 29 28 28 27 25 24 19 19 15 13 8 3 5 4 5 4 6 12 7 4 3 3 2 7 4 5 1 5 1 6
48 47 44 42 40 38 35 34 33 32 32 31 31 30 31 33 33 30 28 28 27 26 24 19 20 15 10 6 8 9 9 10 8 8 11 9 10 6 5 4 4 2 1 2 1 2 6
52 50 49 47 44 41 40 36 34 32 30 28 28 27 26 30 32 31 28 27 27 27 23 20 20 15 11 8 12 13 15 14 10 7 6 9 10 10 10 7 4 6 1 8 4 3 12
57 55 53 51 49 46 43 41 37 34 31 28 26 25 22 26 28 28 28 28 27 27 23 20 20 16 13 10 14 15 19 18 12 6 2 4 6 7 8 6 3 4 4 4 14 12 22
64 61 58 55 52 50 47 44 41 37 34 30 27 24 21 22 24 26 24 26 26 26 26 21 17 8 7 12 14 21 18 18 14 9 6 3 1 2 5 6 6 9 6 6 12 12 18
64 67 64 61 57 55 52 49 45 41 37 32 29 25 21 20 22 23 24 21 25 25 28 22 22 22 19 17 19 25 21 19 18 12 8 5 2 3 4 7 9 11 10 11 17 12 21
42 54 67 66 63 60 57 54 50 46 41 35 31 27 24 22 21 20 21 21 19 22 27 24 25 24 20 23 23 29 25 19 17 14 11 7 3 9 10 12 11 15 14 16 17 21 20
47 45 45 63 68 65 61 58 55 51 45 40 34 30 27 24 21 17 18 18 15 15 15 20 16 26 25 26 25 28 25 21 20 17 10 7 4 13 16 13 11 15 13 15 17 6 4
51 49 47 45 58 68 65 63 59 55 50 45 39 33 30 28 21 17 17 15 11 10 4 6 18 16 24 30 17 31 29 26 23 17 14 4 2 8 11 10 10 11 11 13 3 6 7
52 53 51 47 44 55 68 66 63 60 55 50 43 37 34 30 23 18 16 14 13 9 9 7 11 18 26 31 19 27 29 30 25 19 16 10 6 6 2 4 5 6 5 2 5 4 3
54 54 54 52 47 43 54 68 66 64 59 54 48 42 38 32 25 24 20 19 13 12 9 11 16 20 24 31 24 22 32 35 29 24 22 15 11 11 8 8 6 4 6 4 3 1 5
53 53 56 54 51 46 42 59 68 67 63 58 52 47 42 36 28 29 28 27 16 9 18 10 18 19 23 28 29 23 30 34 31 22 16 19 9 13 10 9 5 6 4 2 2 2 4
56 52 54 55 55 50 44 42 61 66 66 61 56 53 48 39 32 34 33 36 16 18 23 14 21 22 23 28 27 27 32 36 32 29 19 16 13 10 8 12 9 5 5 6 3 3 3
63 58 56 54 57 54 48 42 45 53 65 61 60 57 53 42 36 37 41 47 29 19 13 27 18 21 27 30 29 29 29 36 33 28 23 14 10 13 8 8 12 11 8 3 4 1 4
61 57 53 57 55 56 51 42 38 43 47 59 55 58 57 48 40 42 52 54 40 26 16 18 21 19 24 28 36 30 24 16 32 25 26 24 15 11 17 16 12 13 16 13 9 4 4
56 55 53 57 56 56 54 46 39 44 39 48 46 60 56 52 47 54 53 56 38 44 26 18 18 20 25 25 32 28 32 32 18 27 28 23 13 20 20 16 17 20 18 19 17 7 7
56 54 55 57 59 57 56 51 45 47 43 50 48 56 42 52 56 61 50 51 50 44 38 30 20 19 20 23 23 34 33 28 26 23 24 24 17 18 13 19 24 22 22 23 22 19 14
53 52 55 56 61 59 58 54 47 49 48 56 48 45 36 40 60 63 49 44 55 51 38 42 31 18 16 16 21 17 29 32 29 25 18 19 24 24 23 25 18 17 18 15 19 17 19
58 60 54 58 62 60 59 57 53 57 51 60 53 43 53 51 64 67 59 51 50 56 50 37 46 32 20 11 18 21 21 25 28 30 26 26 24 25 24 20 18 21 23 21 26 24 21
55 54 52 54 62 61 60 57 55 54 58 64 50 46 52 50 65 66 43 52 51 52 41 51 38 45 31 19 16 14 11 20 27 27 29 26 23 23 24 24 25 19 19 21 20 19 22
53 52 51 62 63 63 58 58 56 57 67 71 48 53 52 54 56 58 71 54 53 48 53 45 41 38 42 31 15 12 13 15 15 15 25 30 31 26 23 22 20 19 26 25 25 28 31
56 52 54 58 64 62 57 59 55 64 75 77 57 55 50 46 48 68 62 52 49 54 48 47 27 25 43 37 27 24 21 19 21 20 18 25 25 28 22 18 2 27 26 26 28 28 31
53 52 51 56 61 59 57 58 56 64 71 76 60 58 54 45 49 49 54 57 40 48 47 43 36 38 11 17 28 28 29 25 24 23 22 25 27 21 15 18 21 19 22 21 17 21 18
46 50 46 57 57 56 55 54 61 58 60 73 56 60 51 39 46 52 39 47 54 51 45 46 39 19 25 29 30 16 11 15 16 26 27 27 27 27 16 8 8 24 19 18 19 28 22
41 45 48 53 57 52 54 53 62 61 56 77 51 60 49 39 30 40 49 49 38 48 50 44 41 37 26 25 21 26 25 18 16 29 30 29 28 29 27 16 17 20 16 11 18 30 19
38 37 44 52 51 50 48 52 67 61 51 77 70 64 58 31 34 28 36 43 39 37 37 35 29 34 33 36 28 19 17 26 23 20 30 32 29 27 27 19 14 22 19 24 24 20 18
36 43 47 49 45 47 47 52 58 64 62 66 76 38 44 40 29 26 32 35 36 37 31 25 24 25 33 30 30 19 19 22 26 28 25 29 31 30 29 26 27 18 18 18 19 20 21
Wind_Direction
259 259 261 260 259 258 259 258 258 260 259 261 262 262 264 267 270 272 276 279 282 287 293 300 301 310 314 311 305 286 284 314 292 186 166 151 178 208 151 7 345 357 5 8 163 172 248
260 259 257 257 259 259 258 260 258 257 259 258 260 260 261 262 264 267 271 275 278 282 288 292 295 303 307 305 304 267 243 271 250 169 148 159 150 175 174 13 11 27 30 111 90 210 232
259 256 255 257 254 254 256 257 259 258 258 259 258 258 259 260 261 263 266 269 273 277 281 285 288 296 298 284 250 207 182 180 141 178 168 180 197 174 231 21 359 356 327 113 67 186 245
258 256 254 252 252 252 251 253 254 256 258 258 258 257 258 259 259 258 261 265 268 272 275 279 281 287 294 264 192 187 166 159 150 162 187 219 244 249 251 301 334 234 41 256 326 25 333
258 257 254 251 249 249 249 247 249 251 253 256 258 257 255 258 258 258 258 261 265 267 269 271 274 278 279 241 196 195 168 164 167 160 201 244 265 266 239 257 230 210 118 11 355 16 349
255 254 253 252 248 246 245 245 245 246 247 248 250 254 252 256 256 256 255 258 261 264 263 264 266 268 246 222 202 193 179 181 187 170 199 245 247 254 216 254 208 157 152 160 294 342 321
253 251 250 250 248 246 244 244 243 242 243 245 246 246 251 255 257 254 250 255 260 262 258 254 252 227 213 208 198 187 185 185 189 186 191 163 229 228 216 233 240 280 247 230 271 310 299
254 252 249 247 245 244 243 241 241 241 241 242 241 243 244 251 255 251 248 248 258 265 265 255 249 241 233 208 194 187 188 191 192 187 190 203 225 195 267 250 249 277 238 281 302 303 304
268 259 249 246 244 242 240 238 239 239 240 239 241 240 239 243 250 252 247 247 251 263 273 258 249 241 219 212 200 197 198 197 197 200 201 215 242 278 278 259 264 260 264 283 301 309 306
268 268 260 248 243 241 240 237 236 236 235 237 237 239 238 237 241 244 240 240 245 260 280 269 248 240 219 208 207 200 202 201 201 207 210 251 284 278 270 254 259 273 270 277 307 313 335
263 263 263 258 248 239 237 236 234 233 234 232 234 234 236 236 235 233 232 230 226 238 303 245 217 211 202 204 207 199 207 204 202 205 214 207 295 346 238 246 272 276 286 290 243 285 294
259 258 257 257 254 245 236 234 232 231 231 230 229 230 232 234 230 212 212 202 201 196 244 222 208 203 194 195 196 197 205 205 206 218 229 239 252 279 309 249 258 268 311 241 260 256 210
259 253 252 252 251 250 241 232 230 229 228 228 227 225 228 230 224 205 187 191 186 220 215 211 204 199 198 192 194 197 198 201 202 210 223 229 233 260 276 270 264 233 308 347 354 25 221
257 253 248 247 248 249 248 234 227 226 226 225 225 224 221 222 220 203 184 185 219 243 200 199 203 201 201 198 194 196 200 200 205 209 216 225 231 254 263 251 259 232 272 219 254 224 275
252 249 250 244 244 243 245 245 229 223 222 222 222 222 220 214 213 203 195 197 216 207 208 212 201 203 201 200 196 196 202 206 208 210 220 217 227 241 253 246 247 234 254 276 259 306 305
253 248 246 244 238 240 237 241 229 225 220 218 220 221 219 210 207 194 203 212 218 194 218 209 207 206 206 200 195 199 200 211 212 213 218 226 236 219 236 244 240 253 261 232 244 191 269
250 243 239 237 234 234 233 230 230 216 217 214 216 216 215 208 201 195 216 214 217 204 202 212 213 210 213 210 205 204 203 201 211 218 220 228 235 231 222 234 240 252 247 241 243 224 179
245 238 231 233 233 229 228 225 220 211 210 204 208 215 212 205 195 203 216 220 209 214 216 220 214 212 210 213 207 205 207 207 200 216 214 223 236 233 248 250 253 258 253 252 236 228 225
241 238 233 227 230 225 223 219 214 207 207 194 202 214 204 206 197 211 214 223 221 222 212 223 216 208 205 210 209 217 214 210 218 211 221 226 220 231 236 244 244 251 262 271 241 247 244
237 235 233 223 227 222 219 216 210 195 202 188 198 199 183 204 209 216 207 215 218 222 217 221 221 202 201 195 206 214 222 219 214 216 234 226 231 228 225 242 245 246 248 257 240 243 256
240 230 233 221 223 218 216 212 206 197 195 184 202 199 189 194 204 212 215 216 219 219 219 220 226 218 217 195 187 206 222 222 219 228 237 235 238 235 237 239 246 254 267 262 245 255 255
238 233 230 221 219 215 213 210 207 201 187 190 209 198 190 205 207 205 205 215 215 215 216 218 225 221 225 213 182 173 196 217 229 230 235 233 223 232 235 241 242 241 251 244 251 260 267
232 225 213 224 215 212 211 207 203 193 188 194 199 196 195 200 207 209 211 212 216 220 219 223 227 223 226 219 194 236 220 206 206 222 232 231 224 226 228 231 225 237 243 251 257 257 262
223 222 210 214 212 209 208 205 202 188 187 194 192 196 196 208 203 213 213 212 213 218 224 223 212 224 231 228 237 241 233 232 222 226 227 237 231 224 228 221 203 254 260 264 262 261 261
216 216 205 209 208 202 205 200 197 188 191 196 193 191 200 208 213 212 218 209 217 217 225 226 225 229 193 219 234 244 249 250 237 227 226 231 233 217 218 222 244 250 264 274 280 280 272
208 212 199 203 199 195 202 196 192 190 188 196 199 194 194 200 215 218 210 212 210 220 223 227 215 178 207 230 223 235 212 222 221 225 227 224 225 229 214 214 209 268 273 265 261 266 269
199 195 193 192 188 194 194 190 187 188 196 194 184 191 185 197 207 215 218 212 210 221 228 230 230 219 214 220 225 229 228 232 223 216 219 222 224 223 228 232 249 256 257 246 229 276 272
172 182 178 178 187 190 184 184 191 192 196 200 194 187 197 195 191 203 215 221 213 220 224 228 227 225 219 218 220 218 222 226 233 233 224 226 219 219 225 231 249 254 244 247 278 278 274
175 166 164 178 181 177 180 185 191 196 198 204 202 186 195 205 190 199 206 219 222 226 225 217 222 226 216 209 216 218 225 225 228 231 229 222 226 229 235 246 253 254 258 275 281 264 263